Weather History for Andover, NJ

Change the Weather History Date:

Tuesday, July 23, 2013

  Actual Average (KFWN) Record (KFWN)
Temperature  
Mean Temperature 78 °F -  
Max Temperature 84 °F 83 °F 98 °F (1955)
Min Temperature 70 °F 58 °F 46 °F (1977)
Cooling Degree Days 12    
Growing Degree Days 28 (Base 50)    
Moisture  
Dew Point 71 °F    
Average Humidity 86    
Maximum Humidity 97    
Minimum Humidity 65    
Precipitation  
Precipitation 0.63 in - - ()
Sea Level Pressure  
Sea Level Pressure 29.65 in    
Wind  
Wind Speed 1 mph (SW)    
Max Wind Speed 7 mph    
Max Gust Speed -    
Averages and records for this station are not official NWS values.
T = Trace of Precipitation, MM = Missing Value Source: NWS Daily Summary

Daily Weather History Graph

Daily Weather History Graph

Search for Another Location

Airport:

Trip Planner

Search our weather history database for the weather conditions in past years. The results will help you decide how hot, cold, wet, or windy it might be!

Date:

Astronomy

Jul. 23, 2013 Rise Set
Actual Time 5:46 AM EDT 8:23 PM EDT
Civil Twilight 5:14 AM EDT 8:55 PM EDT
Nautical Twilight 4:35 AM EDT 9:34 PM EDT
Astronomical Twilight 3:50 AM EDT 10:19 PM EDT
Moon 8:48 PM EDT (7/23) 6:53 AM EDT (7/23)
Length of Visible Light 15h 40m
Length of Day
14h 36m
Full, 99% of the Moon is Illuminated
Jul 23
Full
Jul 29
Last Quarter
Aug 6
New
Aug 14
First Quarter
Aug 20
Full

Hourly Weather History & Observations

Time (EDT) Temp. Heat Index Dew Point Humidity Pressure Visibility Wind Dir Wind Speed Gust Speed Precip Events Conditions
12:54 AM 73.0 °F - 71.1 °F 93% 29.77 in - Calm Calm - 0.03 in   Unknown
1:54 AM 73.0 °F - 72.0 °F 96% 29.75 in - Calm Calm - 0.09 in   Unknown
2:54 AM 73.0 °F - 72.0 °F 96% 29.71 in - Calm Calm - 0.21 in   Unknown
3:54 AM 73.0 °F - 71.1 °F 93% 29.68 in - Calm Calm - 0.13 in   Unknown
4:54 AM 72.0 °F - 70.0 °F 93% 29.68 in - Calm Calm - N/A   Unknown
5:54 AM 72.0 °F - 71.1 °F 97% 29.68 in - Calm Calm - N/A   Unknown
6:54 AM 73.0 °F - 71.1 °F 93% 29.68 in - Calm Calm - N/A   Unknown
7:54 AM 73.9 °F - 71.1 °F 91% 29.67 in - Calm Calm - N/A   Unknown
8:54 AM 73.9 °F - 70.0 °F 87% 29.66 in - SW 6.9 mph - N/A   Unknown
9:54 AM 77.0 °F - 70.0 °F 79% 29.65 in - Variable 3.5 mph - N/A   Unknown
10:54 AM 78.1 °F - 70.0 °F 76% 29.65 in - Variable 4.6 mph - N/A   Unknown
11:54 AM 81.0 °F 84.9 °F 71.1 °F 72% 29.62 in - Variable 3.5 mph - N/A   Unknown
12:54 PM 84.0 °F 89.0 °F 71.1 °F 65% 29.62 in - Variable 4.6 mph - N/A   Unknown
2:54 PM 73.9 °F - 71.1 °F 91% 29.62 in - SSW 4.6 mph - 0.17 in   Unknown
3:54 PM 79.0 °F - 72.0 °F 79% 29.60 in - Variable 3.5 mph - N/A   Unknown
4:54 PM 82.9 °F 88.0 °F 72.0 °F 69% 29.58 in - Variable 5.8 mph - N/A   Unknown
5:54 PM 79.0 °F - 72.0 °F 79% 29.58 in - Calm Calm - N/A   Unknown
6:54 PM 75.9 °F - 72.0 °F 87% 29.59 in - Calm Calm - N/A   Unknown
7:54 PM 77.0 °F - 72.0 °F 84% 29.60 in - Calm Calm - N/A   Unknown
8:54 PM 73.0 °F - 70.0 °F 90% 29.62 in - Calm Calm - N/A   Unknown
9:54 PM 72.0 °F - 70.0 °F 93% 29.64 in - Calm Calm - N/A   Unknown
10:54 PM 71.1 °F - 69.1 °F 93% 29.63 in - Calm Calm - N/A   Unknown
11:54 PM 70.0 °F - 68.0 °F 93% 29.64 in - SW 3.5 mph - N/A   Unknown